Flag for Germany Weather past 2 weeks in Offenburg, Baden-Württemberg, Germany

Now
45 °F

Scattered showers. Broken clouds.


Feels Like: 43 °F
Forecast: 34 / 53 °F
Wind: 3 mph from North

Location: Lahr - CAN-AFB


UV Index: 0 (Low)

Visibility: N/A


Pressure: 29.92 "Hg

Humidity: 81%

Dew point: 39 °F

Location of OffenburgLocation

Historic Weather in Offenburg

°F

Offenburg temperature yesterday

Maximum temperature yesterday: 64 °F (at 5:20 PM)
Minimum temperature yesterday: 37 °F (at 7:50 AM)
Average temperature yesterday: 56 °F

Past Weeks' High & Low Weather Summary

 TemperatureHumidityPressure
High72 °F (Apr 11, 5:20 PM)100% (Apr 4, 7:50 AM)30.36 "Hg (Apr 4, 7:50 AM)
Low34 °F (Apr 16, 7:50 AM)25% (Apr 17, 6:20 PM)29.68 "Hg (Apr 4, 7:50 AM)
Average56 °F55%30.10 "Hg
* Reported Apr 4 7:50 AM — Apr 18 6:20 PM, Offenburg, Weather by CustomWeather, © 2014

Note: Actual official high and low records may vary slightly from our data, if they occured in-between our weather recording intervals... More about our weather records

Advertising

Historic Weather Conditions — Data for Previous 24 hours

 ConditionsComfort  
Time TempWeatherWind HumidityBarometerVisibility
6:20 PM
Apr 18
45 °FScattered showers. Broken clouds.3 mph81%29.92 "HgN/A
5:50 PM43 °FThunderstorms. Broken clouds.7 mph81%29.89 "HgN/A
5:20 PM52 °FRain showers. Broken clouds.5 mph58%29.89 "HgN/A
4:50 PM52 °FScattered showers. Broken clouds.2 mph62%29.89 "HgN/A
4:20 PM50 °FPartly sunny.3 mph62%29.89 "HgN/A
3:50 PM50 °FBroken clouds.1 mph62%29.89 "HgN/A
3:20 PM48 °FBroken clouds.2 mph71%29.92 "HgN/A
2:50 PM48 °FBroken clouds.3 mph76%29.92 "HgN/A
2:20 PM46 °FBroken clouds.3 mph76%29.92 "HgN/A
1:50 PM46 °FRain showers. More clouds than sun.8 mph87%29.92 "HgN/A
1:20 PM46 °FRain showers. Overcast.12 mph87%29.92 "HgN/A
11:50 AM50 °FOvercast.16 mph67%29.89 "HgN/A
11:20 AM50 °FOvercast.7 mph76%29.89 "HgN/A
10:50 AM50 °FOvercast.5 mph76%29.89 "HgN/A
10:20 AM48 °FMore clouds than sun.7 mph82%29.89 "HgN/A
9:50 AM48 °FLight rain. Broken clouds.8 mph87%29.89 "HgN/A
9:20 AM50 °FLight rain. Broken clouds.6 mph71%29.89 "HgN/A
8:50 AM48 °FLight rain. Broken clouds.8 mph82%29.89 "HgN/A
9:20 PM
Apr 17
54 °FSunny.3 mph44%30.01 "Hg10 mi
8:50 PM54 °FSunny.5 mph41%30.01 "Hg10 mi
8:20 PM59 °FSunny.2 mph31%30.01 "Hg10 mi
Weather by CustomWeather, © 2014

See weather overview